FW1304 Weather Reports


Display with metric or nautical units.
time (UTC)temp
F
wind
direction
speed
MPH
gust
MPH
rain 1hr
in
rain 24hr
in
rain mn
in
humidity
%
barometer
mb
20260901190332 85 215 0.0 0.0 0.00 0.00 0.00 37 1011.4
20260901185837 85 220 0.0 1.0 0.00 0.00 0.00 37 1011.6
20260901185338 85 253 0.0 1.0 0.00 0.00 0.00 38 1011.6
20260901184819 84 241 0.0 0.0 0.00 0.00 0.00 42 1011.6
20260901184336 83 246 0.0 0.0 0.00 0.00 0.00 42 1011.6
20260901183818 83 234 0.0 0.0 0.00 0.00 0.00 43 1011.6
20260901183333 83 234 0.0 0.0 0.00 0.00 0.00 40 1011.7
20260901182820 83 243 0.0 0.0 0.00 0.00 0.00 41 1011.9
20260901182320 83 246 0.0 0.0 0.00 0.00 0.00 42 1011.8
20260901181824 83 336 0.0 0.0 0.00 0.00 0.00 41 1011.8
20260901181328 84 221 0.0 0.0 0.00 0.00 0.00 45 1011.9
20260901180831 84 244 0.0 0.0 0.00 0.00 0.00 44 1012.0
20260901180334 83 244 0.0 0.0 0.00 0.00 0.00 42 1012.1
20260901175816 84 279 0.0 0.0 0.00 0.00 0.00 42 1012.2
20260901175319 84 279 0.0 0.0 0.00 0.00 0.00 42 1012.1
20260901174851 83 238 0.0 0.0 0.00 0.00 0.00 44 1012.2
20260901174341 83 251 0.0 0.0 0.00 0.00 0.00 43 1012.3
20260901173841 83 229 0.0 0.0 0.00 0.00 0.00 46 1012.4
20260901173344 82 234 0.0 0.0 0.00 0.00 0.00 45 1012.5
20260901172829 82 218 0.0 0.0 0.00 0.00 0.00 48 1012.5
20260901172332 81 229 0.0 0.0 0.00 0.00 0.00 50 1012.5
20260901171831 81 229 0.0 0.0 0.00 0.00 0.00 51 1012.5
20260901171343 80 229 0.0 0.0 0.00 0.00 0.00 52 1012.5
20260901170847 80 240 0.0 0.0 0.00 0.00 0.00 52 1012.5
20260901170340 79 98 0.0 0.0 0.00 0.00 0.00 53 1012.5
20260901165829 79 63 0.0 0.0 0.00 0.00 0.00 53 1012.5
20260901165333 79 44 0.0 0.0 0.00 0.00 0.00 52 1012.6
20260901164843 79 11 0.0 0.0 0.00 0.00 0.00 56 1012.5
20260901164323 78 284 0.0 0.0 0.00 0.00 0.00 57 1012.6
20260901163826 78 284 0.0 0.0 0.00 0.00 0.00 60 1012.6
20260901163319 78 38 0.0 0.0 0.00 0.00 0.00 63 1012.5
20260901162843 78 38 0.0 0.0 0.00 0.00 0.00 62 1012.5
20260901162342 77 46 0.0 0.0 0.00 0.00 0.00 64 1012.4
20260901161845 77 48 0.0 0.0 0.00 0.00 0.00 64 1012.4
20260901161327 77 44 0.0 0.0 0.00 0.00 0.00 65 1012.5
20260901160829 76 297 0.0 0.0 0.00 0.00 0.00 63 1012.6
20260901160326 76 297 0.0 0.0 0.00 0.00 0.00 67 1012.6
20260901155842 76 14 0.0 0.0 0.00 0.00 0.00 67 1012.6
20260901155353 76 55 0.0 0.0 0.00 0.00 0.00 68 1012.7
20260901154834 76 54 0.0 0.0 0.00 0.00 0.00 69 1012.7
20260901154341 76 50 0.0 0.0 0.00 0.00 0.00 68 1012.8
20260901153826 75 50 0.0 0.0 0.00 0.00 0.00 69 1012.7
20260901153337 75 50 0.0 0.0 0.00 0.00 0.00 70 1012.7
20260901152855 75 54 0.0 0.0 0.00 0.00 0.00 68 1012.7
20260901152335 75 360 0.0 0.0 0.00 0.00 0.00 70 1012.8
20260901151838 75 269 0.0 0.0 0.00 0.00 0.00 71 1012.8
20260901151332 74 269 0.0 0.0 0.00 0.00 0.00 72 1012.7
20260901150844 74 269 0.0 0.0 0.00 0.00 0.00 71 1012.7
20260901150316 74 261 0.0 0.0 0.00 0.00 0.00 72 1012.7
20260901145833 74 263 0.0 0.0 0.00 0.00 0.00 72 1012.8
20260901145334 74 277 0.0 0.0 0.00 0.00 0.00 72 1012.9
20260901144816 73 319 0.0 0.0 0.00 0.00 0.00 73 1012.8
20260901144342 73 306 0.0 0.0 0.00 0.00 0.00 73 1012.8
20260901143844 73 321 0.0 0.0 0.00 0.00 0.00 75 1012.7
20260901143317 72 297 0.0 0.0 0.00 0.00 0.00 77 1012.8
20260901142831 72 293 0.0 0.0 0.00 0.00 0.00 80 1012.7
20260901142330 71 296 0.0 0.0 0.00 0.00 0.00 82 1012.8
20260901141843 71 269 0.0 0.0 0.00 0.00 0.00 85 1012.7
20260901141335 70 250 0.0 0.0 0.00 0.00 0.00 87 1012.7
20260901140837 69 304 0.0 0.0 0.00 0.00 0.00 88 1012.7
20260901140338 69 265 0.0 0.0 0.00 0.00 0.00 88 1012.7
20260901135823 68 261 0.0 0.0 0.00 0.00 0.00 88 1012.8
20260901135326 68 257 0.0 0.0 0.00 0.00 0.00 88 1012.8
20260901134829 68 258 0.0 0.0 0.00 0.00 0.00 88 1012.9
20260901134339 67 257 0.0 0.0 0.00 0.00 0.00 88 1012.8
20260901133840 67 246 0.0 0.0 0.00 0.00 0.00 87 1012.9
20260901133331 67 254 0.0 0.0 0.00 0.00 0.00 87 1012.9
20260901132816 66 254 0.0 0.0 0.00 0.00 0.00 88 1012.9
20260901132341 66 254 0.0 0.0 0.00 0.00 0.00 87 1012.7
20260901131833 65 225 0.0 0.0 0.00 0.00 0.00 88 1012.7
20260901131319 65 215 0.0 0.0 0.00 0.00 0.00 88 1012.6
20260901130819 65 214 0.0 0.0 0.00 0.00 0.00 88 1012.5
20260901130318 64 213 0.0 0.0 0.00 0.00 0.00 88 1012.5
20260901125833 64 213 0.0 0.0 0.00 0.00 0.00 88 1012.4
20260901125339 64 213 0.0 0.0 0.00 0.00 0.00 88 1012.3
20260901124840 63 213 0.0 0.0 0.00 0.00 0.00 88 1012.4
20260901124400 63 213 0.0 0.0 0.00 0.00 0.00 88 1012.4
20260901123842 63 213 0.0 0.0 0.00 0.00 0.00 88 1012.4
20260901123316 63 213 0.0 0.0 0.00 0.00 0.00 88 1012.5
20260901122841 63 212 0.0 0.0 0.00 0.00 0.00 88 1012.4
20260901122340 62 209 0.0 0.0 0.00 0.00 0.00 88 1012.4
20260901121844 62 209 0.0 0.0 0.00 0.00 0.00 88 1012.2
20260901121337 62 209 0.0 0.0 0.00 0.00 0.00 88 1012.2
20260901120837 62 209 0.0 0.0 0.00 0.00 0.00 88 1012.1
20260901120317 62 209 0.0 0.0 0.00 0.00 0.00 88 1012.0
20260901115837 62 209 0.0 0.0 0.00 0.00 0.00 88 1011.9
20260901115340 62 209 0.0 0.0 0.00 0.00 0.00 88 1011.9
20260901114844 62 209 0.0 0.0 0.00 0.00 0.00 88 1011.9
20260901114328 62 209 0.0 0.0 0.00 0.00 0.00 88 1011.8
20260901113857 62 209 0.0 0.0 0.00 0.00 0.00 89 1011.7
20260901113338 62 209 0.0 0.0 0.00 0.00 0.00 89 1011.7
20260901112832 63 209 0.0 0.0 0.00 0.00 0.00 89 1011.8
20260901112339 63 209 0.0 0.0 0.00 0.00 0.00 88 1011.6
20260901111842 63 209 0.0 0.0 0.00 0.00 0.00 88 1011.6
20260901111332 63 209 0.0 0.0 0.00 0.00 0.00 88 1011.5
20260901110816 63 209 0.0 0.0 0.00 0.00 0.00 88 1011.6
20260901110316 63 209 0.0 0.0 0.00 0.00 0.00 88 1011.6
20260901105830 63 209 0.0 0.0 0.00 0.00 0.00 88 1011.4
20260901105334 63 209 0.0 0.0 0.00 0.00 0.00 88 1011.5
20260901104817 63 209 0.0 0.0 0.00 0.00 0.00 88 1011.5
20260901104334 63 209 0.0 0.0 0.00 0.00 0.00 88 1011.5
20260901103838 63 209 0.0 0.0 0.00 0.00 0.00 88 1011.6
20260901103342 63 209 0.0 0.0 0.00 0.00 0.00 88 1011.4
20260901102830 63 209 0.0 0.0 0.00 0.00 0.00 88 1011.4
20260901102332 63 209 0.0 0.0 0.00 0.00 0.00 88 1011.5
20260901101836 63 209 0.0 0.0 0.00 0.00 0.00 88 1011.6
20260901101336 63 209 0.0 0.0 0.00 0.00 0.00 88 1011.6
20260901100817 63 208 0.0 0.0 0.00 0.00 0.00 89 1011.5
20260901100320 63 208 0.0 0.0 0.00 0.00 0.00 88 1011.4
20260901095832 63 208 0.0 0.0 0.00 0.00 0.00 89 1011.3
20260901095335 63 208 0.0 0.0 0.00 0.00 0.00 89 1011.2
20260901094838 63 208 0.0 0.0 0.00 0.00 0.00 88 1011.3
20260901094323 63 208 0.0 0.0 0.00 0.00 0.00 88 1011.2
20260901093846 63 208 0.0 0.0 0.00 0.00 0.00 88 1011.1
20260901093338 63 208 0.0 0.0 0.00 0.00 0.00 88 1011.0
20260901092822 63 208 0.0 0.0 0.00 0.00 0.00 88 1011.1
20260901092325 64 208 0.0 0.0 0.00 0.00 0.00 88 1010.9
20260901091827 64 208 0.0 0.0 0.00 0.00 0.00 88 1011.0
20260901091342 64 208 0.0 0.0 0.00 0.00 0.00 88 1011.0
20260901090824 64 208 0.0 0.0 0.00 0.00 0.00 88 1010.9
20260901090357 64 208 0.0 0.0 0.00 0.00 0.00 88 1010.9
20260901085818 64 208 0.0 0.0 0.00 0.00 0.00 88 1010.9
20260901085321 64 208 0.0 0.0 0.00 0.00 0.00 88 1010.9
20260901084854 64 208 0.0 0.0 0.00 0.00 0.00 88 1010.9
20260901084343 64 206 0.0 0.0 0.00 0.00 0.00 88 1010.9
20260901083826 64 234 0.0 0.0 0.00 0.00 0.00 88 1010.9
20260901083340 64 234 0.0 0.0 0.00 0.00 0.00 88 1011.0
20260901082843 65 234 0.0 0.0 0.00 0.00 0.00 88 1010.9
20260901082327 65 234 0.0 0.0 0.00 0.00 0.00 88 1010.9
20260901081827 65 234 0.0 0.0 0.00 0.00 0.00 88 1010.9
20260901081319 65 234 0.0 0.0 0.00 0.00 0.00 88 1010.9
20260901080822 65 234 0.0 0.0 0.00 0.00 0.00 88 1011.0
20260901080350 65 234 0.0 0.0 0.00 0.00 0.00 88 1010.9
20260901075844 65 234 0.0 0.0 0.00 0.00 0.00 88 1010.9
20260901075329 65 234 0.0 0.0 0.00 0.00 0.00 88 1011.0
20260901074841 65 234 0.0 0.0 0.00 0.00 0.00 88 1011.0
20260901074328 65 234 0.0 0.0 0.00 0.00 0.00 88 1011.0
20260901073859 65 234 0.0 0.0 0.00 0.00 0.00 88 1011.0
20260901073340 65 234 0.0 0.0 0.00 0.00 0.00 88 1011.1
20260901072833 65 234 0.0 0.0 0.00 0.00 0.00 88 1011.1
20260901072402 66 234 0.0 0.0 0.00 0.00 0.00 88 1011.2
20260901071843 66 234 0.0 0.0 0.00 0.00 0.00 88 1011.3
20260901071326 66 234 0.0 0.0 0.00 0.00 0.00 88 1011.4
20260901070834 66 234 0.0 0.0 0.00 0.00 0.00 88 1011.4
20260901070337 66 234 0.0 0.0 0.00 0.00 0.00 88 1011.5
20260901065831 66 234 0.0 0.0 0.00 0.00 0.00 88 1011.5
20260901065333 66 234 0.0 0.0 0.00 0.00 0.00 88 1011.5
20260901064837 66 234 0.0 0.0 0.00 0.00 0.00 88 1011.5
20260901064317 66 234 0.0 0.0 0.00 0.00 0.00 88 1011.6
20260901063821 67 234 0.0 0.0 0.00 0.00 0.00 88 1011.6
20260901063332 67 234 0.0 0.0 0.00 0.00 0.00 88 1011.6
20260901062844 67 234 0.0 0.0 0.00 0.00 0.00 87 1011.6
20260901062354 67 234 0.0 0.0 0.00 0.00 0.00 87 1011.6
20260901061905 67 234 0.0 0.0 0.00 0.00 0.00 87 1011.6
20260901061329 67 234 0.0 0.0 0.00 0.00 0.00 87 1011.6
20260901060830 67 234 0.0 0.0 0.00 0.00 0.00 87 1011.6
20260901060403 67 234 0.0 0.0 0.00 0.00 0.00 87 1011.5
20260901055838 68 234 0.0 0.0 0.00 0.00 0.00 87 1011.4
20260901055319 67 234 0.0 0.0 0.00 0.00 0.00 87 1011.4
20260901054818 67 234 0.0 0.0 0.00 0.00 0.00 86 1011.3
20260901054342 68 234 0.0 0.0 0.00 0.00 0.00 86 1011.4
20260901053835 68 234 0.0 0.0 0.00 0.00 0.00 86 1011.4
20260901053338 68 234 0.0 0.0 0.00 0.00 0.00 86 1011.4
20260901052820 68 234 0.0 0.0 0.00 0.00 0.00 86 1011.5
20260901052322 68 234 0.0 0.0 0.00 0.00 0.00 86 1011.4
20260901051834 68 234 0.0 0.0 0.00 0.00 0.00 86 1011.4
20260901051321 69 234 0.0 0.0 0.00 0.00 0.00 86 1011.3
20260901050848 69 234 0.0 0.0 0.00 0.00 0.00 85 1011.3
20260901050319 69 234 0.0 0.0 0.00 0.00 0.00 85 1011.2
20260901045835 69 234 0.0 0.0 0.00 0.00 0.00 85 1011.1
20260901045338 69 234 0.0 0.0 0.00 0.00 0.00 84 1011.2
20260901044845 69 234 0.0 0.0 0.00 0.00 0.00 84 1011.2
20260901044329 69 234 0.0 0.0 0.00 0.00 0.00 84 1011.2
20260901043832 70 234 0.0 0.0 0.00 0.00 0.00 83 1011.1
20260901043337 70 234 0.0 0.0 0.00 0.00 0.00 83 1011.1
20260901042821 70 234 0.0 0.0 0.00 0.00 0.00 83 1011.1
20260901042335 70 234 0.0 0.0 0.00 0.00 0.00 83 1011.0
20260901041838 71 234 0.0 0.0 0.00 0.00 0.00 83 1010.9
20260901041358 71 234 0.0 0.0 0.00 0.00 0.00 82 1010.9
20260901040834 71 234 0.0 0.0 0.00 0.00 0.00 82 1010.9
20260901040338 71 234 0.0 0.0 0.00 0.00 0.00 82 1010.9
20260901035824 72 234 0.0 0.0 0.00 0.00 0.00 82 1010.9
20260901035326 72 234 0.0 0.0 0.00 0.00 0.00 81 1010.9
20260901034827 72 234 0.0 0.0 0.00 0.00 0.00 82 1011.0
20260901034340 72 235 0.0 0.0 0.00 0.00 0.00 81 1010.9
20260901033844 73 236 0.0 0.0 0.00 0.00 0.00 81 1011.0
20260901033317 73 236 0.0 0.0 0.00 0.00 0.00 80 1011.0
20260901032905 73 236 0.0 0.0 0.00 0.00 0.00 79 1011.0
20260901032317 73 236 0.0 0.0 0.00 0.00 0.00 77 1010.9
20260901031819 73 236 0.0 0.0 0.00 0.00 0.00 76 1010.9
20260901031330 73 236 0.0 0.0 0.00 0.00 0.00 75 1010.8
20260901030831 73 236 0.0 0.0 0.00 0.00 0.00 75 1010.7
20260901030334 74 236 0.0 0.0 0.00 0.00 0.00 74 1010.7
20260901025819 74 236 0.0 0.0 0.00 0.00 0.00 74 1010.6
20260901025352 74 236 0.0 0.0 0.00 0.00 0.00 74 1010.6
20260901024830 74 236 0.0 0.0 0.00 0.00 0.00 73 1010.6
20260901024332 74 236 0.0 0.0 0.00 0.00 0.00 73 1010.6
20260901023835 75 236 0.0 0.0 0.00 0.00 0.00 72 1010.6
20260901023338 75 236 0.0 0.0 0.00 0.00 0.00 71 1010.6
20260901022822 75 236 0.0 0.0 0.00 0.00 0.00 71 1010.6
20260901022327 75 235 0.0 0.0 0.00 0.00 0.00 71 1010.6
20260901021859 75 234 0.0 0.0 0.00 0.00 0.00 71 1010.4
20260901021353 76 234 0.0 0.0 0.00 0.00 0.00 70 1010.5
20260901020832 76 234 0.0 0.0 0.00 0.00 0.00 69 1010.5
20260901020317 76 234 0.0 0.0 0.00 0.00 0.00 69 1010.4
20260901015832 76 234 0.0 0.0 0.00 0.00 0.00 69 1010.4
20260901015340 77 234 0.0 0.0 0.00 0.00 0.00 68 1010.4
20260901014839 77 234 0.0 0.0 0.00 0.00 0.00 67 1010.3
20260901014351 77 234 0.0 0.0 0.00 0.00 0.00 66 1010.3
20260901013833 78 234 0.0 0.0 0.00 0.00 0.00 65 1010.2
20260901013316 78 234 0.0 0.0 0.00 0.00 0.00 64 1010.0
20260901012826 79 234 0.0 0.0 0.00 0.00 0.00 63 1009.9
20260901012359 79 234 0.0 0.0 0.00 0.00 0.00 63 1009.9
20260901011841 80 234 0.0 0.0 0.00 0.00 0.00 62 1010.0
20260901011326 80 234 0.0 0.0 0.00 0.00 0.00 61 1009.9
20260901010824 80 234 0.0 0.0 0.00 0.00 0.00 60 1009.9
20260901010328 81 234 0.0 0.0 0.00 0.00 0.00 58 1009.8
20260901005842 81 234 0.0 0.0 0.00 0.00 0.00 58 1009.8
20260901005316 82 234 0.0 0.0 0.00 0.00 0.00 57 1009.8
20260901004844 82 234 0.0 0.0 0.00 0.00 0.00 57 1009.9
20260901004338 82 234 0.0 0.0 0.00 0.00 0.00 56 1009.8
20260901003842 83 233 0.0 0.0 0.00 0.00 0.00 54 1009.8
20260901003345 83 232 0.0 0.0 0.00 0.00 0.00 53 1009.7
20260901002853 84 233 0.0 0.0 0.00 0.00 0.00 53 1009.7
20260901002336 84 232 0.0 0.0 0.00 0.00 0.00 52 1009.7
20260901001839 84 260 0.0 0.0 0.00 0.00 0.00 51 1009.7
20260901001325 85 244 0.0 0.0 0.00 0.00 0.00 50 1009.7
20260901000820 85 244 0.0 0.0 0.00 0.00 0.00 51 1009.7
20260901000324 85 244 0.0 0.0 0.00 0.00 0.00 50 1009.6
20260831235830 85 245 0.0 0.0 0.00 0.00 0.00 50 1009.6
20260831235334 85 237 0.0 0.0 0.00 0.00 0.00 49 1009.6
20260831234819 85 238 0.0 0.0 0.00 0.00 0.00 49 1009.7
20260831234337 85 238 0.0 0.0 0.00 0.00 0.00 47 1009.7
20260831233840 86 246 0.0 0.0 0.00 0.00 0.00 47 1009.6
20260831233343 86 246 0.0 0.0 0.00 0.00 0.00 46 1009.5
20260831232837 86 242 0.0 0.0 0.00 0.00 0.00 47 1009.6
20260831232337 87 24 0.0 0.0 0.00 0.00 0.00 47 1009.6
20260831231840 87 24 0.0 0.0 0.00 0.00 0.00 47 1009.6
20260831231344 87 25 0.0 0.0 0.00 0.00 0.00 44 1009.6
20260831230829 87 25 0.0 0.0 0.00 0.00 0.00 44 1009.6
20260831230343 87 25 0.0 0.0 0.00 0.00 0.00 41 1009.5
20260831225824 87 25 0.0 0.0 0.00 0.00 0.00 42 1009.5
20260831225336 87 25 0.0 0.0 0.00 0.00 0.00 41 1009.4
20260831224839 87 34 0.0 0.0 0.00 0.00 0.00 43 1009.4
20260831224326 88 34 0.0 0.0 0.00 0.00 0.00 44 1009.4
20260831223824 88 42 0.0 0.0 0.00 0.00 0.00 43 1009.3
20260831223355 88 42 0.0 0.0 0.00 0.00 0.00 42 1009.3
20260831222820 88 307 0.0 0.0 0.00 0.00 0.00 41 1009.4
20260831222323 89 344 0.0 1.0 0.00 0.00 0.00 39 1009.3
20260831221852 89 275 0.0 1.0 0.00 0.00 0.00 40 1009.3
20260831221334 89 274 0.0 0.0 0.00 0.00 0.00 40 1009.3
20260831220836 89 276 0.0 0.0 0.00 0.00 0.00 41 1009.3
20260831220340 89 23 0.0 0.0 0.00 0.00 0.00 42 1009.2
20260831215836 89 275 0.0 0.0 0.00 0.00 0.00 41 1009.2
20260831215340 89 269 0.0 0.0 0.00 0.00 0.00 39 1009.2
20260831214843 89 12 0.0 0.0 0.00 0.00 0.00 39 1009.2
20260831214328 89 28 0.0 0.0 0.00 0.00 0.00 40 1009.1
20260831213828 90 36 0.0 0.0 0.00 0.00 0.00 40 1009.1
20260831213341 90 338 0.0 0.0 0.00 0.00 0.00 39 1009.1
20260831212839 89 324 0.0 0.0 0.00 0.00 0.00 37 1009.2
20260831212342 90 26 0.0 0.0 0.00 0.00 0.00 38 1009.1
20260831211840 90 25 0.0 0.0 0.00 0.00 0.00 38 1009.1
20260831211325 90 20 0.0 0.0 0.00 0.00 0.00 39 1009.0
20260831210828 90 206 0.0 0.0 0.00 0.00 0.00 39 1008.9
20260831210331 89 271 0.0 0.0 0.00 0.00 0.00 39 1008.9
20260831205839 89 234 0.0 0.0 0.00 0.00 0.00 41 1009.0
20260831205342 89 329 0.0 0.0 0.00 0.00 0.00 41 1009.1
20260831204845 89 178 0.0 1.0 0.00 0.00 0.00 42 1009.1
20260831204338 89 24 0.0 1.0 0.00 0.00 0.00 41 1009.2
20260831203839 89 40 0.0 0.0 0.00 0.00 0.00 41 1009.2
20260831203319 88 31 0.0 0.0 0.00 0.00 0.00 41 1009.2
20260831202822 88 258 0.0 0.0 0.00 0.00 0.00 43 1009.2
20260831202324 88 5 0.0 0.0 0.00 0.00 0.00 41 1009.2
20260831201853 88 297 0.0 0.0 0.00 0.00 0.00 42 1009.2
20260831201320 88 312 0.0 0.0 0.00 0.00 0.00 42 1009.1
20260831200853 88 347 0.0 0.0 0.00 0.00 0.00 41 1009.1
20260831200345 88 323 0.0 0.0 0.00 0.00 0.00 41 1009.0
20260831195825 88 289 0.0 0.0 0.00 0.00 0.00 42 1008.9
20260831195339 88 39 0.0 1.0 0.00 0.00 0.00 41 1008.9
20260831194820 88 327 0.0 1.0 0.00 0.00 0.00 41 1008.8
20260831194341 88 313 0.0 0.0 0.00 0.00 0.00 44 1008.8
20260831193828 88 251 0.0 0.0 0.00 0.00 0.00 45 1008.8
20260831193341 88 299 0.0 0.0 0.00 0.00 0.00 44 1008.8
20260831192854 87 311 0.0 0.0 0.00 0.00 0.00 46 1008.8
20260831192337 87 253 0.0 0.0 0.00 0.00 0.00 46 1008.8
20260831191844 87 360 0.0 0.0 0.00 0.00 0.00 46 1009.0
20260831191330 87 321 0.0 0.0 0.00 0.00 0.00 47 1009.0
20260831190902 87 12 0.0 0.0 0.00 0.00 0.00 47 1009.1